JL1CBB-13 Weather Reports


Display with metric or nautical units.
time (UTC)temp
F
wind
direction
speed
MPH
gust
MPH
rain 1hr
in
rain 24hr
in
rain mn
in
humidity
%
barometer
mb
20260504175535 57 32 2.0 7.0 0.00 0.12 0.00 46 1015.0
20260504174535 57 18 2.0 3.0 0.00 0.12 0.00 46 1015.0
20260504173535 57 14 5.0 8.0 0.00 0.12 0.00 46 1015.0
20260504172535 57 343 3.0 6.0 0.00 0.12 0.00 46 1015.0
20260504171535 57 63 2.0 2.0 0.00 0.12 0.00 46 1015.0
20260504170535 57 1 3.0 5.0 0.00 0.12 0.00 46 1015.0
20260504150534 61 65 6.0 8.0 0.00 0.12 0.00 47 1011.0
20260504140535 63 41 3.0 3.0 0.00 0.12 0.12 47 1010.0
20260504130535 66 338 3.0 3.0 0.00 0.12 0.12 46 1009.0
20260504110534 72 131 3.0 6.0 0.00 0.12 0.12 46 1003.0
20260504100535 72 292 0.0 0.0 0.00 0.12 0.12 52 1002.0
20260504081535 76 147 5.0 7.0 0.00 0.12 0.12 40 1000.0
20260504080535 76 291 3.0 7.0 0.00 0.12 0.12 39 999.0
20260504050534 83 157 9.0 15.0 0.00 0.12 0.12 52 997.0
20260504045534 84 189 8.0 12.0 0.00 0.12 0.12 51 996.0
20260504044534 85 221 5.0 7.0 0.00 0.12 0.12 50 996.0
20260504043534 85 240 6.0 10.0 0.00 0.12 0.12 50 997.0
20260504042534 85 201 7.0 12.0 0.00 0.12 0.12 50 997.0
20260504041534 86 201 5.0 6.0 0.00 0.12 0.12 48 997.0
20260504040534 86 147 5.0 6.0 0.00 0.12 0.12 49 997.0
20260504035534 86 140 6.0 7.0 0.00 0.12 0.12 48 997.0
20260504034534 85 132 7.0 10.0 0.00 0.12 0.12 49 997.0
20260504033534 86 205 6.0 9.0 0.00 0.12 0.12 50 997.0
20260504032536 86 151 6.0 8.0 0.00 0.12 0.12 51 998.0
20260504031536 86 150 7.0 9.0 0.00 0.12 0.12 51 998.0
20260504030535 88 176 6.0 7.0 0.00 0.12 0.12 50 998.0
20260504025535 89 128 3.0 5.0 0.00 0.12 0.12 50 999.0
20260504024535 89 215 6.0 9.0 0.00 0.12 0.12 49 999.0
20260504023535 88 94 5.0 6.0 0.00 0.12 0.12 52 999.0
20260504022535 85 206 3.0 5.0 0.00 0.12 0.12 58 999.0
20260504021535 84 185 6.0 8.0 0.00 0.12 0.12 58 999.0
20260504020535 86 154 5.0 8.0 0.00 0.12 0.12 58 998.0
20260504015535 85 179 5.0 6.0 0.00 0.12 0.12 59 999.0
20260504014535 85 228 8.0 10.0 0.00 0.12 0.12 59 999.0
20260504013535 86 221 5.0 7.0 0.00 0.12 0.12 59 999.0
20260504012534 85 177 5.0 9.0 0.00 0.12 0.12 59 999.0
20260504011534 84 181 6.0 8.0 0.00 0.12 0.12 60 999.0
20260504010534 84 231 6.0 7.0 0.00 0.12 0.12 63 999.0
20260504005534 84 213 7.0 10.0 0.00 0.12 0.12 63 999.0
20260504004534 84 199 7.0 12.0 0.00 0.12 0.12 66 999.0
20260504003534 81 133 5.0 7.0 0.00 0.12 0.12 72 999.0
20260504002534 83 170 6.0 12.0 0.00 0.12 0.12 71 999.0
20260504001534 83 232 3.0 6.0 0.00 0.12 0.12 72 999.0
20260504000534 82 164 6.0 7.0 0.00 0.12 0.12 74 999.0
20260503235534 80 210 6.0 6.0 0.00 0.12 0.12 79 999.0
20260503234534 77 204 6.0 13.0 0.00 0.12 0.12 86 999.0
20260503233801 75 161 7.0 8.0 0.00 0.12 0.12 88 999.0
20260503232800 75 234 6.0 8.0 0.00 0.12 0.12 90 999.0
20260503231801 74 202 8.0 13.0 0.00 0.12 0.12 91 999.0
20260503230801 75 90 7.0 9.0 0.00 0.12 0.12 91 999.0
20260503225800 74 222 6.0 8.0 0.00 0.12 0.12 92 999.0
20260503224800 74 112 5.0 8.0 0.00 0.12 0.12 94 999.0
20260503223800 73 231 5.0 7.0 0.00 0.12 0.12 95 999.0
20260503222800 73 248 5.0 3.0 0.00 0.12 0.12 95 998.0
20260503221800 73 201 5.0 9.0 0.00 0.12 0.12 96 998.0
20260503220800 73 184 7.0 9.0 0.00 0.12 0.12 98 999.0
20260503215800 72 203 6.0 8.0 0.00 0.12 0.12 98 999.0
20260503214800 72 257 5.0 7.0 0.00 0.12 0.12 98 999.0
20260503213800 72 190 6.0 6.0 0.00 0.12 0.12 98 998.0
20260503212800 71 276 7.0 12.0 0.00 0.12 0.12 98 999.0
20260503211800 71 158 6.0 13.0 0.04 0.12 0.12 98 999.0
20260503210800 71 42 6.0 5.0 0.08 0.12 0.12 98 999.0
20260503205759 71 220 9.0 10.0 0.08 0.12 0.12 98 999.0
20260503204759 71 111 8.0 12.0 0.08 0.12 0.12 98 999.0
20260503203801 71 257 6.0 12.0 0.08 0.12 0.12 98 999.0
20260503202801 70 207 8.0 14.0 0.08 0.12 0.12 98 999.0
20260503201801 70 177 7.0 9.0 0.08 0.08 0.08 98 999.0
20260503200801 70 221 5.0 5.0 0.04 0.04 0.04 98 1000.0
20260503195801 70 184 6.0 10.0 0.04 0.04 0.04 98 1000.0
20260503194801 69 221 5.0 5.0 0.04 0.04 0.04 98 1000.0
20260503193800 69 215 7.0 10.0 0.04 0.04 0.04 98 1000.0
20260503192800 69 189 7.0 9.0 0.04 0.04 0.04 98 1000.2
20260503191800 69 153 5.0 8.0 0.00 0.00 0.00 98 1001.0
20260503190800 68 172 3.0 7.0 0.00 0.00 0.00 98 1001.0
20260503185800 67 175 2.0 3.0 0.00 0.00 0.00 98 1002.0
20260503184800 67 13 5.0 8.0 0.00 0.00 0.00 98 1002.0
20260503183800 66 214 3.0 5.0 0.00 0.00 0.00 98 1002.0
20260503182801 66 211 5.0 7.0 0.00 0.00 0.00 98 1002.0
20260503181801 66 223 3.0 5.0 0.00 0.00 0.00 98 1002.0
20260503180801 66 222 5.0 7.0 0.00 0.00 0.00 98 1003.0